Location: Unspecified
(38.5482°N, 1.4063°W)
Time: 03:54:52
(UTC+00:00)

Envisat - Visible Passes

Search period start: 04 March 2024 00:00
Search period end: 14 March 2024 00:00
Orbit: 762 x 764 km, 98.3° (Epoch: 03 March)

Date Brightness Start Highest point End Pass type
(mag) Time Alt. Az. Time Alt. Az. Time Alt. Az.
04 Mar 5.1 03:32:26 10° NNE 03:33:49 19° NNE 03:33:49 19° NNE visible
05 Mar 5.7 02:55:27 10° NNE 02:56:14 14° NE 02:56:14 14° NE visible
05 Mar 4.8 04:34:54 10° NNW 04:36:24 17° NNW 04:36:24 17° NNW visible
06 Mar 4.7 03:56:56 10° N 03:58:48 22° N 03:58:48 22° N visible
07 Mar 5.1 03:19:33 10° NNE 03:21:13 21° NNE 03:21:13 21° NNE visible
07 Mar 5.0 05:00:22 10° NNW 05:01:23 13° NW 05:01:23 13° NW visible
08 Mar 5.8 02:42:49 10° NE 02:43:37 14° NE 02:43:37 14° NE visible
08 Mar 4.6 04:21:40 10° N 04:23:47 21° NNW 04:23:47 21° NNW visible
09 Mar 4.6 03:43:56 10° N 03:46:12 27° N 03:46:12 27° N visible
10 Mar 5.1 03:06:45 10° NNE 03:08:36 22° NNE 03:08:36 22° NNE visible
10 Mar 4.7 04:46:47 10° NNW 04:48:46 17° NW 04:48:46 17° NW visible
11 Mar 5.8 02:30:20 10° NE 02:31:00 13° NE 02:31:00 13° NE visible
11 Mar 4.3 04:08:33 10° N 04:11:11 27° NNW 04:11:11 27° NNW visible
12 Mar 4.4 03:31:00 10° NNE 03:33:35 31° NNE 03:33:35 31° NNE visible
12 Mar 5.0 05:13:00 10° NW 05:13:46 11° NW 05:13:46 11° NW visible
13 Mar 5.2 02:54:02 10° NNE 02:55:59 21° NE 02:55:59 21° NE visible
13 Mar 4.4 04:33:26 10° NNW 04:36:09 22° NW 04:36:09 22° NW visible
